Flag for China Weather past 2 weeks in Changsha, Hunan, China

Now
70 °F

Fog.


Feels Like: 70 °F
Forecast: 69 / 83 °F
Wind: 1 mph from North

Location: Changsha

Current Time: Oct 1, 2014 at 8:19:50 AM

Latest Report: Oct 1, 2014 at 7:00 AM


Visibility: 3 mi

Pressure: 30.01 "Hg

Humidity: 83%

Dew point: 64 °F

Location of ChangshaLocation

Historic Weather in Changsha — Graph

°F

Changsha temperature yesterday

Maximum temperature yesterday: 77 °F (at 3:00 PM)
Minimum temperature yesterday: 70 °F (at 1:00 AM)
Average temperature yesterday: 73 °F

Past Weeks' High & Low Weather Summary

 TemperatureHumidityPressure
High97 °F (Sep 28, 2:00 PM)94% (Sep 18, 2:00 AM)30.09 "Hg (Sep 18, 2:00 AM)
Low64 °F (Sep 21, 5:00 AM)37% (Sep 21, 3:00 PM)29.74 "Hg (Sep 28, 3:00 PM)
Average75 °F74%29.90 "Hg
* Reported Sep 16 7:00 AM — Oct 1 7:00 AM, Changsha, Weather by CustomWeather, © 2014

Note: Actual official high and low records may vary slightly from our data, if they occured in-between our weather recording intervals... More about our weather records

Advertising

Changsha weather history for previous 24 hours

 ConditionsComfort  
Time TempWeatherWind HumidityBarometerVisibility
7:00 AM
Oct 1
70 °FFog.1 mph83%30.01 "Hg3 mi
6:00 AM70 °FFog.1 mph83%29.98 "Hg3 mi
5:00 AM70 °FFog.1 mph83%29.98 "Hg3 mi
4:00 AM70 °FFog.1 mph83%29.98 "Hg3 mi
3:00 AM70 °FFog.1 mph88%29.98 "Hg3 mi
2:00 AM72 °FPassing clouds.1 mph83%29.98 "Hg4 mi
1:00 AM70 °FFog.1 mph88%30.01 "Hg3 mi
12:00 AM70 °FFog.1 mph88%30.01 "Hg3 mi
11:00 PM
Sep 30
72 °FPassing clouds.1 mph83%30.04 "Hg4 mi
10:00 PM73 °FPassing clouds.1 mph78%30.04 "Hg4 mi
9:00 PM73 °FPassing clouds.1 mph78%30.04 "Hg4 mi
8:00 PM73 °FClear.No wind78%30.01 "Hg4 mi
7:00 PM75 °FPassing clouds.1 mph74%30.01 "Hg4 mi
6:00 PM75 °FScattered clouds.1 mph74%30.01 "Hg5 mi
5:00 PM77 °FPartly sunny.1 mph69%30.01 "Hg4 mi
4:00 PM77 °FPartly sunny.3 mph65%30.01 "Hg4 mi
3:00 PM77 °FPartly sunny.3 mph65%30.01 "Hg5 mi
2:00 PM75 °FPartly sunny.3 mph69%30.04 "Hg6 mi
1:00 PM75 °FPartly sunny.6 mph69%30.04 "Hg6 mi
12:00 PM75 °FPartly sunny.6 mph65%30.07 "HgN/A
11:00 AM75 °FPartly sunny.8 mph65%30.09 "HgN/A
10:00 AM73 °FFog.6 mph74%30.09 "Hg3 mi
9:00 AM73 °FFog.8 mph74%30.07 "Hg2 mi
8:00 AM72 °FFog.8 mph78%30.07 "Hg1 mi
Weather by CustomWeather, © 2014

See weather overviewHow to use our weather pages